Вернуться в каталог

COSMOS 1579 COOLANT

LostLEO
NORAD 27908·DEBRIS·🇷🇺 Russia

Запущен Jun 29, 1984 с Baikonur Cosmodrome

Loading…

Ближайшие Пролёты (ближайшие 24 часа)

TLE

УстаревшееSource: Space-Track

Эпоха: Oct 22, 2022, 20:39 UTC

1 27908U 84069AA  22295.86063787  .00000126  00000-0  17101-3 0  9990
2 27908  65.0412 110.2877 0033156 135.5627 224.8106 13.91152880998310

Отслеживайте COSMOS 1579 COOLANT в реальном времени с AllMySat

Download on the App Store